星链-5094 (STARLINK-5094 )

导读

STARLINK-5094是美国SpaceX公司星链(Starlink)项目的低轨互联网卫星,于2022年10月5日发射入轨,属于第二代星链星座的组成部分。作为全球规模最大低轨卫星互联网的一员,它依托星链星座,面向全球提供低延迟高速宽带服务,能覆盖偏远地区与海洋空域,同时助力扩展星链网络通信覆盖,支撑天地一体化网络构建。

Basic Information
目录编号:
53977
目录名称:
STARLINK-5094
国际标识:
2022-125P
轨道中心:
EARTH
卫星名称:
星链-5094
卫星全名:
星链-5094 (STARLINK-5094 )
卫星状态:
在轨 (已飞行1351 天)
发射日期:
2022-10-05 UTC
国别 :
美国 (US)
星等 :
--
Orbit Information
数据来源 国际轨道数据 AOE轨道数据
星历时间 2026-06-17T12:50:33+0800
3小时前
查看轨道信息
2026-06-15T11:00:00+0800
2天前
查看轨道信息
半长轴 6917.908km 6917.831km
偏心率 0.0001333 0.0001625
轨道倾角 53.161° 53.159°
近地点辐角 85.016° 87.227°
升交点赤经 132.411° 141.747°
平近点角 275.099° 146.083°
近地点 538.848km 538.569km
远地点 540.694km 540.819km
周期 95.438分钟 95.437分钟
每日圈数 15.088311 15.088563
Detailed Information
固有亮度:
5
最大亮度:
2.5
卫星平台:
Starlink v1.5
覆盖范围:
全球
运营商:
太空探索技术公司
运营商所在国:
美国
制造商(研发单位):
太空探索技术公司
制造商所在国:
美国
使用方式:
暂无
Satellite Introduction
星链(Starlink)计划是由太空探索技术公司(SpaceX)提出的一个巨型低轨卫星互联网星座项目,计划在2019年至2024年间在太空搭建由约1.2万颗卫星组成的“星链”网络,其中1584颗将部署在地球上空550千米处的近地轨道,并从2020年开始工作。该卫星仍在工作。
2D Orbit Map
3D Orbit Map
Orbit Altitude Analysis Chart
Orbit Inclination Analysis Chart
Orbit Comprehensive Analysis Chart
View Comprehensive Chart